User: anonymous   Login
Location: Unspecified
(0.0000°N, 0.0000°E)
Time: 17:20:41
(UTC+01:00)
Language:

Cosmos 1072 Rocket - Orbit

View from above orbital plane
View from above orbital plane
View from above satellite
View from above satellite

Ground track
Ground track

The orbit data is extracted from the following two-line orbital elements,

1 11239U 79003B   17053.84998931  .00000051  00000-0  37182-4 0  9993
2 11239  82.9412 173.4356 0040360 354.1837 119.4602 13.75809781912135
Epoch (UTC): 22 February 2017 20:23:59
Eccentricity: 0.0040360
inclination: 82.9412°
perigee height: 949 km
apogee height: 1008 km
right ascension of ascending node: 173.4356°
argument of perigee: 354.1837°
revolutions per day: 13.75809781
mean anomaly at epoch: 119.4602°
orbit number at epoch: 91213

The dashed part of the orbit path shows where the satellite is in the earth's shadow,  

DLR